OAL951 LGRP-LGAV

Flight info

Callsign OAL951
Flight time 0h 45m
Altitude 28000
Route CODIC UL995 VARIX
Aircraft B738/M-SDE2E3FGHIRWXY/LB1

Departure

Time 2026-05-07 17:20
Airport Rhodes International Airport "Diagoras" (LGRP)

Arrival

Time 2026-05-07 18:05
Airport Athens Eleftherios Venizelos International Airport (LGAV)
Time Latitude Longitude Altitude Speed Heading
2026-05-07 16:58 36.40388 28.09186 28 ft 0 kts 160°
2026-05-07 17:11 36.40390 28.09185 28 ft 2 kts 160°
2026-05-07 17:11 36.40402 28.09179 28 ft 2 kts 160°
2026-05-07 17:11 36.40415 28.09174 28 ft 2 kts 160°
2026-05-07 17:12 36.40428 28.09168 28 ft 2 kts 160°
2026-05-07 17:12 36.40440 28.09161 28 ft 2 kts 131°
2026-05-07 17:12 36.40447 28.09148 28 ft 2 kts 101°
2026-05-07 17:12 36.40448 28.09142 28 ft 0 kts 84°
2026-05-07 17:14 36.40449 28.09159 28 ft 4 kts 84°
2026-05-07 17:14 36.40459 28.09203 28 ft 6 kts 70°
2026-05-07 17:14 36.40473 28.09249 28 ft 6 kts 69°
2026-05-07 17:15 36.40487 28.09294 28 ft 7 kts 69°
2026-05-07 17:15 36.40527 28.09364 28 ft 13 kts 36°
2026-05-07 17:15 36.40595 28.09448 28 ft 14 kts 62°
2026-05-07 17:15 36.40631 28.09566 30 ft 15 kts 70°
2026-05-07 17:16 36.40665 28.09683 27 ft 14 kts 70°
2026-05-07 17:16 36.40698 28.09799 22 ft 15 kts 70°
2026-05-07 17:16 36.40733 28.09917 22 ft 14 kts 69°
2026-05-07 17:16 36.40767 28.10029 20 ft 14 kts 70°
2026-05-07 17:17 36.40799 28.10139 18 ft 13 kts 70°
2026-05-07 17:17 36.40829 28.10244 19 ft 13 kts 70°
2026-05-07 17:17 36.40859 28.10347 24 ft 12 kts 70°
2026-05-07 17:17 36.40893 28.10423 23 ft 10 kts 36°
2026-05-07 17:18 36.40958 28.10417 21 ft 10 kts 327°
2026-05-07 17:18 36.41003 28.10355 21 ft 10 kts 303°
2026-05-07 17:18 36.41019 28.10276 22 ft 9 kts 263°
2026-05-07 17:18 36.40998 28.10199 25 ft 10 kts 250°
2026-05-07 17:19 36.40928 28.09957 23 ft 60 kts 250°
2026-05-07 17:19 36.40717 28.09238 29 ft 116 kts 250°
2026-05-07 17:19 36.40383 28.08124 87 ft 154 kts 249°
2026-05-07 17:19 36.40007 28.06854 566 ft 155 kts 250°
2026-05-07 17:20 36.39791 28.05519 989 ft 167 kts 267°
2026-05-07 17:20 36.39732 28.04085 1626 ft 163 kts 266°
2026-05-07 17:20 36.39625 28.02645 2042 ft 177 kts 266°
2026-05-07 17:20 36.39516 28.01028 2349 ft 195 kts 266°
2026-05-07 17:21 36.39400 27.99279 2595 ft 214 kts 266°
2026-05-07 17:21 36.39253 27.97343 2754 ft 234 kts 265°
2026-05-07 17:21 36.39083 27.95261 2949 ft 256 kts 265°
2026-05-07 17:21 36.38905 27.92971 3296 ft 270 kts 265°
2026-05-07 17:22 36.38731 27.90696 4178 ft 264 kts 265°
2026-05-07 17:22 36.38553 27.88402 4785 ft 270 kts 266°
2026-05-07 17:22 36.38612 27.86072 5336 ft 272 kts 289°
2026-05-07 17:22 36.39513 27.84031 5991 ft 271 kts 309°
2026-05-07 17:23 36.40702 27.82191 6621 ft 275 kts 311°
2026-05-07 17:23 36.41921 27.80344 7254 ft 278 kts 311°
2026-05-07 17:23 36.43138 27.78481 7978 ft 278 kts 310°
2026-05-07 17:23 36.44349 27.76607 8702 ft 279 kts 310°
2026-05-07 17:24 36.45151 27.75360 9181 ft 280 kts 310°
2026-05-07 17:24 36.46365 27.73463 9927 ft 281 kts 309°
2026-05-07 17:24 36.47381 27.71365 10505 ft 290 kts 298°
2026-05-07 17:24 36.48250 27.68991 10659 ft 313 kts 295°
2026-05-07 17:25 36.49123 27.66419 10820 ft 333 kts 294°
2026-05-07 17:25 36.50044 27.63688 11031 ft 350 kts 294°
2026-05-07 17:25 36.51005 27.60865 11506 ft 357 kts 295°
2026-05-07 17:25 36.51983 27.58027 12168 ft 358 kts 295°
2026-05-07 17:26 36.52974 27.55180 12876 ft 359 kts 295°
2026-05-07 17:26 36.53971 27.52332 13570 ft 360 kts 295°
2026-05-07 17:26 36.54977 27.49472 14216 ft 362 kts 295°
2026-05-07 17:26 36.55994 27.46584 14828 ft 365 kts 295°
2026-05-07 17:27 36.57015 27.43689 15452 ft 367 kts 295°
2026-05-07 17:27 36.58041 27.40773 16073 ft 369 kts 295°
2026-05-07 17:27 36.59074 27.37836 16689 ft 372 kts 294°
2026-05-07 17:27 36.60113 27.34881 17287 ft 374 kts 294°
2026-05-07 17:28 36.61160 27.31899 17877 ft 377 kts 294°
2026-05-07 17:28 36.62213 27.28896 18449 ft 380 kts 294°
2026-05-07 17:28 36.63258 27.25914 18935 ft 383 kts 294°
2026-05-07 17:28 36.64325 27.22865 19418 ft 386 kts 294°
2026-05-07 17:29 36.65399 27.19793 19904 ft 389 kts 294°
2026-05-07 17:29 36.66483 27.16692 20409 ft 392 kts 294°
2026-05-07 17:29 36.67573 27.13571 20900 ft 394 kts 294°
2026-05-07 17:29 36.68667 27.10429 21382 ft 397 kts 294°
2026-05-07 17:30 36.69767 27.07263 21830 ft 400 kts 294°
2026-05-07 17:30 36.70875 27.04069 22279 ft 403 kts 294°
2026-05-07 17:30 36.71989 27.00857 22731 ft 405 kts 294°
2026-05-07 17:30 36.73110 26.97619 23168 ft 408 kts 294°
2026-05-07 17:31 36.74239 26.94355 23595 ft 411 kts 294°
2026-05-07 17:31 36.75373 26.91071 23962 ft 414 kts 294°
2026-05-07 17:31 36.76510 26.87776 24384 ft 414 kts 294°
2026-05-07 17:31 36.77644 26.84486 24883 ft 412 kts 294°
2026-05-07 17:32 36.78770 26.81216 25404 ft 409 kts 294°
2026-05-07 17:32 36.79887 26.77964 25911 ft 407 kts 295°
2026-05-07 17:32 36.80997 26.74734 26499 ft 402 kts 295°
2026-05-07 17:32 36.82091 26.71549 27144 ft 396 kts 295°
2026-05-07 17:33 36.83168 26.68413 27764 ft 392 kts 295°
2026-05-07 17:33 36.84240 26.65291 28131 ft 392 kts 295°
2026-05-07 17:33 36.86381 26.59059 28137 ft 390 kts 295°
2026-05-07 17:34 36.88517 26.52826 28148 ft 391 kts 295°
2026-05-07 17:34 36.90656 26.46556 28148 ft 393 kts 295°
2026-05-07 17:35 36.92800 26.40251 28146 ft 395 kts 295°
2026-05-07 17:35 36.94943 26.33934 28142 ft 395 kts 295°
2026-05-07 17:36 36.97084 26.27615 28140 ft 394 kts 295°
2026-05-07 17:36 36.99220 26.21309 28139 ft 393 kts 294°
2026-05-07 17:37 37.01358 26.15014 28140 ft 393 kts 294°
2026-05-07 17:37 37.03487 26.08732 28146 ft 392 kts 294°
2026-05-07 17:38 37.05613 26.02447 28141 ft 392 kts 294°
2026-05-07 17:38 37.07733 25.96164 28139 ft 392 kts 294°
2026-05-07 17:39 37.09849 25.89876 28138 ft 392 kts 294°
2026-05-07 17:39 37.11963 25.83582 28138 ft 392 kts 294°
2026-05-07 17:40 37.14062 25.77321 28136 ft 393 kts 294°
2026-05-07 17:40 37.16173 25.71008 28134 ft 393 kts 294°
2026-05-07 17:41 37.18284 25.64682 28133 ft 393 kts 294°
2026-05-07 17:41 37.20392 25.58352 28128 ft 394 kts 293°
2026-05-07 17:42 37.22499 25.52012 28124 ft 394 kts 293°
2026-05-07 17:42 37.23547 25.48829 27669 ft 394 kts 293°
2026-05-07 17:42 37.24573 25.45665 27191 ft 389 kts 293°
2026-05-07 17:43 37.25584 25.42536 26705 ft 385 kts 293°
2026-05-07 17:43 37.26585 25.39440 26222 ft 381 kts 293°
2026-05-07 17:43 37.27574 25.36374 25752 ft 377 kts 292°
2026-05-07 17:43 37.28469 25.33291 25280 ft 374 kts 290°
2026-05-07 17:44 37.29294 25.30205 24829 ft 372 kts 289°
2026-05-07 17:44 37.30099 25.27130 24366 ft 369 kts 289°
2026-05-07 17:44 37.30900 25.24073 23896 ft 368 kts 289°
2026-05-07 17:44 37.31705 25.21028 23369 ft 366 kts 290°
2026-05-07 17:45 37.32510 25.18001 22878 ft 364 kts 290°
2026-05-07 17:45 37.33311 25.14998 22406 ft 361 kts 289°
2026-05-07 17:45 37.34106 25.12019 21940 ft 358 kts 289°
2026-05-07 17:45 37.34894 25.09064 21496 ft 355 kts 289°
2026-05-07 17:46 37.35683 25.06138 21052 ft 352 kts 292°
2026-05-07 17:46 37.36893 25.03492 20614 ft 349 kts 308°
2026-05-07 17:46 37.38637 25.01394 20211 ft 348 kts 322°
2026-05-07 17:46 37.40615 24.99652 19785 ft 347 kts 324°
2026-05-07 17:47 37.42623 24.97976 19353 ft 345 kts 324°
2026-05-07 17:47 37.44603 24.96341 18930 ft 344 kts 324°
2026-05-07 17:47 37.46625 24.94664 18482 ft 344 kts 324°
2026-05-07 17:47 37.48590 24.93022 18001 ft 342 kts 324°
2026-05-07 17:48 37.50565 24.91361 17555 ft 340 kts 324°
2026-05-07 17:48 37.52526 24.89704 17114 ft 339 kts 324°
2026-05-07 17:48 37.54476 24.88049 16675 ft 337 kts 324°
2026-05-07 17:48 37.56417 24.86399 16247 ft 335 kts 324°
2026-05-07 17:49 37.58343 24.84759 15834 ft 334 kts 324°
2026-05-07 17:49 37.60266 24.83119 15420 ft 332 kts 324°
2026-05-07 17:49 37.62175 24.81489 15008 ft 331 kts 324°
2026-05-07 17:49 37.64080 24.79863 14603 ft 330 kts 324°
2026-05-07 17:50 37.65979 24.78239 14197 ft 329 kts 324°
2026-05-07 17:50 37.67875 24.76618 13773 ft 329 kts 324°
2026-05-07 17:50 37.69764 24.75001 13322 ft 328 kts 324°
2026-05-07 17:50 37.71644 24.73392 12908 ft 327 kts 324°
2026-05-07 17:51 37.73526 24.71779 12501 ft 327 kts 324°
2026-05-07 17:51 37.75413 24.70160 12106 ft 328 kts 324°
2026-05-07 17:51 37.77306 24.68537 11724 ft 328 kts 324°
2026-05-07 17:51 37.79181 24.66927 11385 ft 324 kts 324°
2026-05-07 17:52 37.81037 24.65333 11045 ft 321 kts 324°
2026-05-07 17:52 37.82874 24.63755 10707 ft 318 kts 324°
2026-05-07 17:52 37.84695 24.62189 10373 ft 315 kts 324°
2026-05-07 17:52 37.86479 24.60654 10027 ft 305 kts 324°
2026-05-07 17:53 37.88200 24.59173 9690 ft 294 kts 324°
2026-05-07 17:53 37.89860 24.57743 9373 ft 284 kts 323°
2026-05-07 17:53 37.91471 24.56354 9050 ft 276 kts 324°
2026-05-07 17:53 37.93044 24.54996 8754 ft 273 kts 323°
2026-05-07 17:54 37.94610 24.53645 8455 ft 272 kts 323°
2026-05-07 17:54 37.96167 24.52299 8180 ft 270 kts 323°
2026-05-07 17:54 37.97710 24.50966 7953 ft 267 kts 324°
2026-05-07 17:54 37.99193 24.49621 7722 ft 265 kts 314°
2026-05-07 17:55 38.00241 24.47743 7522 ft 261 kts 295°
2026-05-07 17:55 38.01110 24.45701 7312 ft 265 kts 296°
2026-05-07 17:55 38.02000 24.43652 7080 ft 264 kts 296°
2026-05-07 17:55 38.02887 24.41629 6869 ft 261 kts 297°
2026-05-07 17:56 38.03770 24.39625 6650 ft 259 kts 297°
2026-05-07 17:56 38.04644 24.37638 6416 ft 257 kts 297°
2026-05-07 17:56 38.05508 24.35672 6199 ft 254 kts 296°
2026-05-07 17:56 38.06363 24.33725 5956 ft 251 kts 297°
2026-05-07 17:57 38.07196 24.31790 5729 ft 248 kts 292°
2026-05-07 17:57 38.07523 24.30417 5574 ft 245 kts 278°
2026-05-07 17:57 38.07862 24.27611 5274 ft 237 kts 276°
2026-05-07 17:57 38.08123 24.25585 5072 ft 228 kts 276°
2026-05-07 17:58 38.08387 24.23615 4898 ft 224 kts 277°
2026-05-07 17:58 38.08653 24.21693 4758 ft 218 kts 277°
2026-05-07 17:58 38.08920 24.19811 4566 ft 213 kts 277°
2026-05-07 17:58 38.09182 24.17998 4396 ft 204 kts 277°
2026-05-07 17:59 38.09432 24.16268 4207 ft 195 kts 277°
2026-05-07 17:59 38.09676 24.14594 4045 ft 191 kts 276°
2026-05-07 17:59 38.09917 24.12925 3870 ft 193 kts 277°
2026-05-07 17:59 38.10162 24.11242 3705 ft 194 kts 276°
2026-05-07 18:00 38.10119 24.09572 3493 ft 189 kts 242°
2026-05-07 18:00 38.09229 24.08431 3365 ft 181 kts 214°
2026-05-07 18:00 38.08301 24.07404 3157 ft 175 kts 225°
2026-05-07 18:00 38.07373 24.06390 3079 ft 181 kts 217°
2026-05-07 18:01 38.06381 24.05449 2999 ft 174 kts 217°
2026-05-07 18:01 38.05412 24.04533 2893 ft 171 kts 217°
2026-05-07 18:01 38.04468 24.03634 2691 ft 172 kts 217°
2026-05-07 18:01 38.03523 24.02733 2460 ft 165 kts 217°
2026-05-07 18:02 38.01738 24.01030 2049 ft 161 kts 216°
2026-05-07 18:02 38.00868 24.00199 1834 ft 154 kts 215°
2026-05-07 18:02 38.00022 23.99393 1626 ft 150 kts 216°
2026-05-07 18:03 37.99190 23.98599 1423 ft 150 kts 216°
2026-05-07 18:03 37.98369 23.97803 1226 ft 148 kts 217°
2026-05-07 18:03 37.97539 23.97024 1016 ft 149 kts 216°
2026-05-07 18:03 37.96698 23.96242 830 ft 150 kts 219°
2026-05-07 18:04 37.95865 23.95430 643 ft 156 kts 218°
2026-05-07 18:04 37.95004 23.94619 423 ft 152 kts 218°
2026-05-07 18:04 37.94175 23.93823 301 ft 144 kts 220°
2026-05-07 18:04 37.93474 23.93151 292 ft 105 kts 217°
2026-05-07 18:05 37.93198 23.92896 291 ft 23 kts 208°
2026-05-07 18:05 37.93059 23.92840 290 ft 18 kts 190°
2026-05-07 18:05 37.92947 23.92841 298 ft 15 kts 140°
2026-05-07 18:05 37.92949 23.92928 299 ft 10 kts 43°
2026-05-07 18:06 37.93005 23.92983 297 ft 10 kts 37°
2026-05-07 18:06 37.93060 23.93036 301 ft 10 kts 37°
2026-05-07 18:06 37.93114 23.93087 297 ft 10 kts 36°
2026-05-07 18:06 37.93167 23.93137 298 ft 9 kts 37°
2026-05-07 18:07 37.93218 23.93186 300 ft 9 kts 37°
2026-05-07 18:07 37.93267 23.93233 298 ft 9 kts 37°
2026-05-07 18:07 37.93316 23.93280 299 ft 9 kts 37°
2026-05-07 18:07 37.93366 23.93327 299 ft 9 kts 37°
2026-05-07 18:08 37.93414 23.93375 300 ft 9 kts 48°
2026-05-07 18:08 37.93420 23.93445 300 ft 8 kts 111°
2026-05-07 18:08 37.93381 23.93523 299 ft 14 kts 127°
2026-05-07 18:08 37.93316 23.93630 303 ft 15 kts 127°
2026-05-07 18:09 37.93253 23.93736 300 ft 15 kts 127°
2026-05-07 18:09 37.93193 23.93837 301 ft 14 kts 127°
2026-05-07 18:09 37.93135 23.93934 300 ft 13 kts 127°
2026-05-07 18:09 37.93079 23.94026 302 ft 13 kts 127°
2026-05-07 18:10 37.93028 23.94112 301 ft 11 kts 127°
2026-05-07 18:10 37.92988 23.94178 301 ft 6 kts 124°
2026-05-07 18:10 37.92995 23.94228 304 ft 6 kts 44°
2026-05-07 18:10 37.93027 23.94260 301 ft 4 kts 38°
2026-05-07 18:11 37.93044 23.94276 302 ft 2 kts 37°
2026-05-07 18:11 37.93047 23.94279 301 ft 0 kts 37°